GW4288 Weather Reports


time (UTC)temp
F
wind
direction
speed
knots
gust
knots
rain 1hr
in
rain 24hr
in
rain mn
in
humidity
%
barometer
mb
20260506224544 63 67 0.9 12.2 0.00 0.00 0.00 72 1007.6
20260506224048 63 295 3.5 8.7 0.00 0.00 0.00 71 1007.7
20260506223819 63 16 4.3 8.7 0.00 0.00 0.00 70 1007.6
20260506223047 63 69 1.7 8.7 0.00 0.00 0.00 71 1007.3
20260506222817 64 17 1.7 7.8 0.00 0.00 0.00 71 1007.4
20260506222047 63 220 3.5 6.1 0.00 0.00 0.00 71 1007.4
20260506221816 63 285 0.0 15.6 0.00 0.00 0.00 71 1007.5
20260506221047 64 250 2.6 15.6 0.00 0.00 0.00 70 1007.5
20260506220544 64 62 1.7 13.9 0.00 0.00 0.00 70 1007.5
20260506220047 64 154 4.3 8.7 0.00 0.00 0.00 70 1007.5
20260506215544 64 13 1.7 8.7 0.00 0.00 0.00 70 1007.3
20260506215047 64 67 2.6 8.7 0.00 0.00 0.00 70 1007.3
20260506214832 64 205 5.2 7.0 0.00 0.00 0.00 69 1007.3
20260506214322 64 272 2.6 11.3 0.00 0.00 0.00 69 1007.3
20260506213828 64 73 1.7 11.3 0.00 0.00 0.00 69 1007.5
20260506213047 64 127 0.9 12.2 0.00 0.00 0.00 69 1007.3
20260506212544 65 89 1.7 12.2 0.00 0.00 0.00 68 1007.5
20260506212048 65 88 0.9 14.8 0.00 0.00 0.00 68 1007.4
20260506211544 65 77 4.3 14.8 0.00 0.00 0.00 68 1007.4
20260506211047 65 89 1.7 13.9 0.00 0.00 0.00 68 1007.3
20260506210544 65 251 2.6 11.3 0.00 0.00 0.00 67 1007.2
20260506210100 65 18 3.5 13.0 0.00 0.00 0.00 67 1007.1
20260506205544 65 99 4.3 18.2 0.00 0.00 0.00 66 1007.0
20260506205326 66 15 5.2 18.2 0.00 0.00 0.00 66 1007.2
20260506204543 65 83 7.8 9.6 0.00 0.00 0.00 66 1007.1
20260506204047 66 101 2.6 7.8 0.00 0.00 0.00 66 1007.1
20260506203547 65 331 5.2 7.8 0.00 0.00 0.00 66 1006.9
20260506203047 66 28 2.6 7.8 0.00 0.00 0.00 66 1006.8
20260506202544 66 70 2.6 11.3 0.00 0.00 0.00 65 1006.9
20260506202046 66 168 7.0 11.3 0.00 0.00 0.00 65 1006.8
20260506201544 66 17 3.5 13.0 0.00 0.00 0.00 65 1006.7
20260506201047 66 88 2.6 13.0 0.00 0.00 0.00 64 1006.8
20260506200545 66 84 6.1 8.7 0.00 0.00 0.00 64 1006.7
20260506195544 67 96 6.1 13.9 0.00 0.00 0.00 63 1006.7
20260506195046 67 101 4.3 8.7 0.00 0.00 0.00 63 1006.7
20260506194544 67 53 1.7 8.7 0.00 0.00 0.00 63 1006.7
20260506194047 66 69 1.7 8.7 0.00 0.00 0.00 63 1006.8
20260506193544 66 75 0.9 9.6 0.00 0.00 0.00 64 1006.7
20260506193047 67 271 0.0 14.8 0.00 0.00 0.00 63 1006.6
20260506192827 67 83 2.6 14.8 0.00 0.00 0.00 62 1006.7
20260506192047 67 134 3.5 7.0 0.00 0.00 0.00 62 1006.9
20260506191821 67 126 2.6 8.7 0.00 0.00 0.00 61 1006.9
20260506191047 67 75 6.1 8.7 0.00 0.00 0.00 61 1006.7
20260506190545 67 104 0.0 18.2 0.00 0.00 0.00 62 1006.7
20260506190100 68 59 4.3 18.2 0.00 0.00 0.00 61 1006.8
20260506185546 68 144 4.3 8.7 0.00 0.00 0.00 60 1006.7
20260506185047 68 40 3.5 11.3 0.00 0.00 0.00 60 1006.7
20260506184544 68 91 6.1 11.3 0.00 0.00 0.00 60 1006.8
20260506184047 68 151 0.0 9.6 0.00 0.00 0.00 61 1006.5
20260506183544 69 37 0.9 9.6 0.00 0.00 0.00 60 1006.4
20260506183047 69 49 2.6 9.6 0.00 0.00 0.00 60 1006.2
20260506182544 68 124 4.3 7.0 0.00 0.00 0.00 60 1006.1
20260506182037 69 51 3.5 7.0 0.00 0.00 0.00 59 1006.1
20260506181810 69 95 2.6 9.6 0.00 0.00 0.00 60 1006.3
20260506181023 69 120 3.5 11.3 0.00 0.00 0.00 59 1006.1
20260506180521 69 74 4.3 11.3 0.00 0.00 0.00 59 1006.1
20260506180017 69 91 0.9 8.7 0.00 0.00 0.00 58 1006.3
20260506175517 69 106 1.7 8.7 0.00 0.00 0.00 59 1006.0
20260506175014 69 79 2.6 11.3 0.00 0.00 0.00 58 1006.1
20260506174506 69 46 2.6 11.3 0.00 0.00 0.00 58 1006.1
20260506174005 70 128 5.2 13.0 0.00 0.00 0.00 58 1006.3
20260506173503 70 97 7.0 13.0 0.00 0.00 0.00 57 1006.2
20260506172953 70 49 6.1 12.2 0.00 0.00 0.00 57 1006.3
20260506172454 70 79 3.5 12.2 0.00 0.00 0.00 57 1006.2
20260506171953 70 66 0.0 8.7 0.00 0.00 0.00 59 1006.2
20260506171454 70 107 0.9 9.6 0.00 0.00 0.00 58 1006.6
20260506170954 70 69 3.5 14.8 0.00 0.00 0.00 58 1006.2
20260506170506 71 89 3.5 14.8 0.00 0.00 0.00 58 1006.4
20260506165953 71 124 2.6 16.5 0.00 0.00 0.00 57 1006.4
20260506165453 71 28 3.5 16.5 0.00 0.00 0.00 58 1006.5
20260506164954 71 157 7.0 11.3 0.00 0.00 0.00 58 1006.5
20260506164453 71 78 1.7 13.9 0.00 0.00 0.00 58 1006.5
20260506163954 71 93 1.7 20.0 0.00 0.00 0.00 58 1006.5
20260506163454 71 71 2.6 20.0 0.00 0.00 0.00 58 1006.4
20260506162954 71 1 4.3 12.2 0.00 0.00 0.00 58 1006.7
20260506162731 71 126 2.6 12.2 0.00 0.00 0.00 58 1006.5
20260506161953 71 39 7.8 12.2 0.00 0.00 0.00 57 1006.8
20260506161453 72 113 3.5 14.8 0.00 0.00 0.00 58 1006.7
20260506161231 71 109 0.9 14.8 0.00 0.00 0.00 57 1006.9
20260506160454 71 104 5.2 13.0 0.00 0.00 0.00 57 1006.9
20260506160305 71 85 2.6 7.8 0.00 0.00 0.00 57 1007.1
20260506155453 71 52 1.7 7.0 0.00 0.00 0.00 57 1007.2
20260506154952 71 228 0.9 7.0 0.00 0.00 0.00 57 1007.0
20260506154453 71 101 6.1 9.6 0.00 0.00 0.00 57 1007.1
20260506154233 71 148 3.5 9.6 0.00 0.00 0.00 57 1007.3
20260506153454 71 42 2.6 11.3 0.00 0.00 0.00 57 1007.3
20260506152954 71 48 6.1 11.3 0.00 0.00 0.00 57 1007.4
20260506152454 71 43 5.2 11.3 0.00 0.00 0.00 57 1007.3
20260506151952 71 75 5.2 11.3 0.00 0.00 0.00 57 1007.4
20260506151454 71 61 3.5 13.9 0.00 0.00 0.00 57 1007.4
20260506151008 71 18 2.6 7.8 0.00 0.00 0.00 57 1007.5
20260506150959 71 92 2.6 13.9 0.00 0.00 0.00 57 1007.4
20260506150239 72 120 5.2 7.8 0.00 0.00 0.00 57 1007.5
20260506145454 73 130 0.0 8.7 0.00 0.00 0.00 57 1007.7
20260506144954 73 60 0.0 8.7 0.00 0.00 0.00 57 1008.0
20260506144730 73 351 0.9 14.8 0.00 0.00 0.00 56 1007.7
20260506143952 71 170 0.9 15.6 0.00 0.00 0.00 56 1007.9
20260506143453 71 219 3.5 15.6 0.00 0.00 0.00 57 1007.9
20260506142951 71 91 4.3 12.2 0.00 0.00 0.00 57 1008.1
20260506142452 71 140 3.5 12.2 0.00 0.00 0.00 58 1007.9
20260506141951 71 75 7.8 13.0 0.00 0.00 0.00 57 1007.9
20260506141450 71 285 0.0 15.6 0.00 0.00 0.00 58 1007.9
20260506140951 72 75 13.9 15.6 0.00 0.00 0.00 57 1008.1
20260506140535 72 133 1.7 13.9 0.00 0.00 0.00 57 1008.2
20260506140522 72 103 13.0 14.8 0.00 0.00 0.00 56 1008.2
20260506135451 71 108 3.5 13.0 0.00 0.00 0.00 59 1008.3
20260506134952 71 132 3.5 13.0 0.00 0.00 0.00 58 1008.3
20260506134451 71 53 4.3 14.8 0.00 0.00 0.00 58 1008.3
20260506133952 71 255 3.5 14.8 0.00 0.00 0.00 59 1008.4
20260506133451 72 90 1.7 8.7 0.00 0.00 0.00 60 1008.2
20260506132951 71 58 0.9 9.6 0.00 0.00 0.00 60 1008.5
20260506132454 70 49 5.2 12.2 0.00 0.00 0.00 60 1008.6
20260506131954 71 83 1.7 12.2 0.00 0.00 0.00 60 1008.5
20260506131453 72 99 7.0 12.2 0.00 0.00 0.00 58 1008.6
20260506131231 71 88 1.7 9.6 0.00 0.00 0.00 58 1008.4
20260506130453 72 90 1.7 8.7 0.00 0.00 0.00 57 1008.5
20260506125953 72 231 1.7 8.7 0.00 0.00 0.00 56 1008.4
20260506125453 72 173 0.9 9.6 0.00 0.00 0.00 55 1008.5
20260506124954 72 94 5.2 9.6 0.00 0.00 0.00 56 1008.6
20260506124454 71 29 0.9 13.9 0.00 0.00 0.00 55 1008.5
20260506123954 71 64 5.2 13.9 0.00 0.00 0.00 55 1008.4
20260506123455 73 114 1.7 6.1 0.00 0.00 0.00 53 1008.6
20260506122953 72 14 0.0 9.6 0.00 0.00 0.00 54 1008.7
20260506122453 72 83 0.0 12.2 0.00 0.00 0.00 54 1008.6
20260506121954 73 341 2.6 12.2 0.00 0.00 0.00 53 1008.5
20260506121455 74 295 5.2 8.7 0.00 0.00 0.00 52 1008.7
20260506120954 74 296 1.7 9.6 0.00 0.00 0.00 51 1008.6
20260506120453 73 78 1.7 14.8 0.00 0.00 0.00 52 1008.3
20260506115953 71 93 2.6 14.8 0.00 0.00 0.00 55 1008.7
20260506115454 73 73 0.9 13.0 0.00 0.00 0.00 53 1008.6
20260506115012 73 46 6.1 7.8 0.00 0.00 0.00 55 1008.7
20260506115002 71 85 3.5 13.0 0.00 0.00 0.00 54 1008.6
20260506113953 73 253 1.7 9.6 0.00 0.00 0.00 54 1008.8
20260506113447 71 4 3.5 12.2 0.00 0.00 0.00 56 1008.8
20260506112947 74 122 3.5 12.2 0.00 0.00 0.00 53 1009.1
20260506112448 72 81 5.2 9.6 0.00 0.00 0.00 53 1008.7
20260506111943 73 21 4.3 9.6 0.00 0.00 0.00 53 1008.9
20260506111459 73 65 1.7 9.6 0.00 0.00 0.00 54 1008.7
20260506110942 73 112 5.2 9.6 0.00 0.00 0.00 53 1008.8
20260506110445 72 95 1.7 7.0 0.00 0.00 0.00 55 1008.8
20260506105941 72 84 2.6 11.3 0.00 0.00 0.00 54 1008.8
20260506105444 70 87 0.0 11.3 0.00 0.00 0.00 55 1008.8
20260506105222 71 114 2.6 11.3 0.00 0.00 0.00 55 1008.8
20260506104446 71 1 3.5 11.3 0.00 0.00 0.00 55 1008.8
20260506103941 72 64 7.0 9.6 0.00 0.00 0.00 54 1008.9
20260506103728 73 13 1.7 5.2 0.00 0.00 0.00 52 1009.1
20260506102941 71 44 1.7 5.2 0.00 0.00 0.00 55 1008.9
20260506102445 70 314 2.6 8.7 0.00 0.00 0.00 57 1009.2
20260506101942 70 313 0.9 13.0 0.00 0.00 0.00 57 1009.1
20260506101444 70 329 3.5 13.0 0.00 0.00 0.00 57 1009.0
20260506100945 69 96 4.3 6.1 0.00 0.00 0.00 58 1009.1
20260506100502 69 55 0.9 6.1 0.00 0.00 0.00 60 1009.1
20260506095944 69 113 0.9 6.1 0.00 0.00 0.00 61 1009.1
20260506095446 68 88 4.3 6.1 0.00 0.00 0.00 61 1009.2
20260506094941 68 83 1.7 7.0 0.00 0.00 0.00 62 1009.2
20260506094445 69 65 4.3 11.3 0.00 0.00 0.00 62 1009.4
20260506094218 68 45 1.7 11.3 0.00 0.00 0.00 62 1009.3
20260506093444 69 44 4.3 8.7 0.00 0.00 0.00 62 1009.2
20260506092940 70 119 3.5 8.7 0.00 0.00 0.00 60 1009.3
20260506092446 69 99 5.2 11.3 0.00 0.00 0.00 61 1009.4
20260506092217 68 17 3.5 11.3 0.00 0.00 0.00 63 1009.3
20260506091444 69 270 0.9 9.6 0.00 0.00 0.00 61 1009.4
20260506091219 69 285 3.5 9.6 0.00 0.00 0.00 61 1009.1
20260506090445 68 338 6.1 11.3 0.00 0.00 0.00 62 1009.4
20260506085944 68 306 5.2 11.3 0.00 0.00 0.00 61 1009.3
20260506085444 68 85 1.7 14.8 0.00 0.00 0.00 62 1009.3
20260506084942 68 305 2.6 14.8 0.00 0.00 0.00 64 1009.3
20260506084444 68 51 1.7 9.6 0.00 0.00 0.00 63 1009.1
20260506083941 69 69 4.3 7.8 0.00 0.00 0.00 63 1009.1
20260506083444 67 332 2.6 7.8 0.00 0.00 0.00 65 1009.1
20260506082942 67 283 0.9 8.7 0.00 0.00 0.00 65 1009.1
20260506082741 67 344 2.6 8.7 0.00 0.00 0.00 65 1009.3
20260506081941 66 56 1.7 8.7 0.00 0.00 0.00 66 1009.2
20260506081444 66 114 1.7 9.6 0.00 0.00 0.00 67 1009.1
20260506080941 65 92 4.3 12.2 0.00 0.00 0.00 67 1009.2
20260506080446 66 295 3.5 12.2 0.00 0.00 0.00 67 1009.2
20260506073442 64 84 5.2 12.2 0.00 0.00 0.00 69 1009.2
20260506072942 64 51 2.6 11.3 0.00 0.00 0.00 69 1009.2
20260506072441 65 223 1.7 11.3 0.00 0.00 0.00 69 1009.3
20260506071941 64 91 9.6 11.3 0.00 0.00 0.00 69 1009.1
20260506071512 65 262 3.5 6.1 0.00 0.00 0.00 68 1009.3
20260506071450 64 57 5.2 11.3 0.00 0.00 0.00 70 1009.2
20260506070729 64 249 0.9 7.8 0.00 0.00 0.00 69 1009.3
20260506062441 62 114 3.5 8.7 0.00 0.00 0.00 72 1009.0
20260506061928 61 80 3.5 9.6 0.00 0.00 0.00 72 1009.0
20260506061430 61 87 4.3 11.3 0.00 0.00 0.00 72 1008.9
20260506060921 60 112 6.1 11.3 0.00 0.00 0.00 73 1008.9
20260506060705 60 66 3.5 9.6 0.00 0.00 0.00 73 1008.9
20260506051415 57 89 3.5 7.8 0.00 0.00 0.00 78 1008.8
20260506050906 57 104 2.6 7.8 0.00 0.00 0.00 77 1008.7
20260506050637 57 173 2.6 5.2 0.00 0.00 0.00 78 1008.8
20260506045127 54 81 1.7 2.6 0.00 0.00 0.00 83 1008.4
20260506044354 54 82 0.0 1.7 0.00 0.00 0.00 84 1008.6
20260506043850 53 81 0.0 1.7 0.00 0.00 0.00 86 1008.5
20260506043351 53 81 0.0 1.7 0.00 0.00 0.00 86 1008.3
20260506042843 53 81 0.0 1.7 0.00 0.00 0.00 86 1008.2
20260506042619 53 81 0.0 1.7 0.00 0.00 0.00 86 1008.3
20260506042120 53 81 0.0 1.7 0.00 0.00 0.00 85 1008.3
20260506041344 53 81 0.9 1.7 0.00 0.00 0.00 85 1008.3
20260506040843 53 93 0.0 1.7 0.00 0.00 0.00 86 1008.4
20260506040344 53 93 0.0 1.7 0.00 0.00 0.00 85 1008.3
20260506035844 54 93 0.0 2.6 0.00 0.00 0.00 84 1008.2
20260506035343 55 93 0.0 3.5 0.00 0.00 0.00 81 1008.2
20260506034843 55 92 1.7 5.2 0.00 0.00 0.00 83 1008.4
20260506034344 55 92 1.7 6.1 0.00 0.00 0.00 82 1008.1
20260506033843 55 101 1.7 6.1 0.00 0.00 0.00 80 1008.1
20260506033344 55 106 2.6 5.2 0.00 0.00 0.00 81 1008.2
20260506032843 55 64 0.0 5.2 0.00 0.00 0.00 80 1008.2
20260506032343 56 107 1.7 7.0 0.00 0.00 0.00 80 1008.1
20260506031844 56 134 1.7 7.8 0.00 0.00 0.00 79 1007.9
20260506031343 56 167 1.7 7.8 0.00 0.00 0.00 79 1008.0
20260506031122 56 67 3.5 6.1 0.00 0.00 0.00 78 1008.0
20260506030343 56 81 4.3 12.2 0.00 0.00 0.00 78 1008.0
20260506025844 57 42 4.3 12.2 0.00 0.00 0.00 77 1008.0
20260506025344 57 83 1.7 6.1 0.00 0.00 0.00 77 1007.7
20260506024843 57 106 1.7 8.7 0.00 0.00 0.00 78 1007.9
20260506024342 57 75 3.5 8.7 0.00 0.00 0.00 77 1007.6
20260506023841 57 137 3.5 7.0 0.00 0.00 0.00 77 1008.0
20260506023341 57 89 0.0 7.8 0.00 0.00 0.00 76 1008.0
20260506022842 57 88 0.9 7.8 0.00 0.00 0.00 76 1007.7
20260506022340 57 97 0.9 11.3 0.00 0.00 0.00 76 1007.5
20260506021841 57 116 4.3 11.3 0.00 0.00 0.00 75 1007.5
20260506021340 58 112 3.5 11.3 0.00 0.00 0.00 76 1007.5
20260506020841 58 73 2.6 11.3 0.00 0.00 0.00 75 1007.6
20260506020340 58 67 5.2 9.6 0.00 0.00 0.00 75 1007.7
20260506015843 58 133 3.5 8.7 0.00 0.00 0.00 75 1007.9
20260506015341 58 74 1.7 11.3 0.00 0.00 0.00 74 1007.9
20260506014840 58 95 0.0 13.0 0.00 0.00 0.00 74 1007.7
20260506014341 58 64 6.1 13.0 0.00 0.00 0.00 74 1007.6
20260506014119 58 62 2.6 6.1 0.00 0.00 0.00 74 1007.9
20260506013633 58 242 0.0 7.8 0.00 0.00 0.00 74 1007.7
20260506012840 58 71 3.5 11.3 0.00 0.00 0.00 73 1007.5
20260506012343 58 62 3.5 12.2 0.00 0.00 0.00 73 1007.3
20260506012129 59 73 4.3 12.2 0.00 0.00 0.00 73 1007.2
20260506011344 59 111 3.5 12.2 0.00 0.00 0.00 72 1007.3
20260506010844 59 87 3.5 13.9 0.00 0.00 0.00 72 1007.2
20260506010344 59 155 3.5 15.6 0.00 0.00 0.00 72 1007.3
20260506005844 59 359 11.3 19.1 0.00 0.00 0.00 71 1007.6
20260506005344 59 123 2.6 19.1 0.00 0.00 0.00 71 1007.5
20260506005131 60 143 0.9 16.5 0.00 0.00 0.00 71 1007.2
20260506004343 60 47 6.1 16.5 0.00 0.00 0.00 70 1007.3
20260506004119 60 80 5.2 7.0 0.00 0.00 0.00 70 1007.1
20260506003343 60 326 4.3 7.0 0.00 0.00 0.00 70 1007.2
20260506002844 60 338 0.9 18.2 0.00 0.00 0.00 70 1007.1
20260506002344 60 283 3.5 18.2 0.00 0.00 0.00 69 1006.9
20260506001844 60 89 7.8 13.9 0.00 0.00 0.00 69 1006.9
20260506001343 60 94 7.8 12.2 0.00 0.00 0.00 69 1006.9
20260506000843 60 296 2.6 7.8 0.00 0.00 0.00 68 1007.0
20260506000344 60 72 1.7 12.2 0.00 0.00 0.00 68 1006.9
20260505235844 60 94 2.6 12.2 0.00 0.00 0.00 68 1006.8
20260505235344 60 274 0.9 11.3 0.00 0.00 0.00 68 1006.9
20260505234843 61 106 4.3 18.2 0.00 0.00 0.00 67 1006.8
20260505234642 61 228 0.0 18.2 0.00 0.00 0.00 67 1006.7
20260505234120 61 144 5.2 14.8 0.00 0.00 0.00 67 1006.8
20260505233345 61 160 3.5 16.5 0.00 0.00 0.00 67 1006.6
20260505233116 61 88 7.8 18.2 0.00 0.00 0.00 66 1006.7
20260505232341 61 51 7.8 20.0 0.00 0.00 0.00 66 1006.8
20260505231840 61 69 7.0 20.0 0.00 0.00 0.00 66 1007.0
20260505231652 61 53 5.2 14.8 0.00 0.00 0.00 65 1007.0
20260505231646 61 50 3.5 20.0 0.00 0.00 0.00 66 1006.8
20260505230353 61 69 8.7 14.8 0.00 0.00 0.00 65 1007.2
20260505225841 62 61 9.6 22.6 0.00 0.00 0.00 65 1007.4
20260505225340 62 75 9.6 22.6 0.00 0.00 0.00 64 1007.3